,,Stat6,,Stat2,,Stat8,,Stat9,,Stat10,,Wind1,,Wind1,
time,status,PA1M_AVG,status,PR1M_SUM,status,RH1M_AVG,status,SR1M_AVG,status,TA1M_AVG,status,W1dAve1m,status,W1sAve1m,
2008-03-18, 00:00:00,VALID,916.181,VALID,0,VALID,100,VALID,-0.0679233,VALID,19.5174,VALID,27,VALID,0,
2008-03-18, 00:01:00,VALID,916.162,VALID,0,VALID,100,VALID,-0.0339617,VALID,19.4979,VALID,27,VALID,0,
2008-03-18, 00:02:00,VALID,916.145,VALID,0,VALID,100,VALID,-0.0339617,VALID,19.4977,VALID,27,VALID,0,
2008-03-18, 00:03:00,VALID,916.123,VALID,0,VALID,100,VALID,-0.0849042,VALID,19.4849,VALID,27,VALID,0,
2008-03-18, 00:04:00,VALID,916.087,VALID,0,VALID,100,VALID,-0.0849042,VALID,19.4752,VALID,27,VALID,0,
2008-03-18, 00:05:00,VALID,916.081,VALID,0,VALID,100,VALID,-0.0679233,VALID,19.4882,VALID,27,VALID,0,
2008-03-18, 00:06:00,VALID,916.065,VALID,0,VALID,100,VALID,-0.0679233,VALID,19.4917,VALID,27,VALID,0,
2008-03-18, 00:07:00,VALID,916.044,VALID,0,VALID,100,VALID,-0.0679233,VALID,19.4914,VALID,27,VALID,0,
2008-03-18, 00:08:00,VALID,916.039,VALID,0,VALID,100,VALID,-0.0509425,VALID,19.4782,VALID,27,VALID,0,
2008-03-18, 00:09:00,VALID,916.022,VALID,0,VALID,100,VALID,-0.0169808,VALID,19.426,VALID,27,VALID,0,
2008-03-18, 00:10:00,VALID,916.008,VALID,0,VALID,100,VALID,-0.0679233,VALID,19.4001,VALID,27,VALID,0,
2008-03-18, 00:11:00,VALID,915.996,VALID,0,VALID,100,VALID,-0.0849042,VALID,19.3809,VALID,27,VALID,0,
2008-03-18, 00:12:00,VALID,915.957,VALID,0,VALID,100,VALID,-0.0509425,VALID,19.3574,VALID,27,VALID,0,
2008-03-18, 00:13:00,VALID,915.926,VALID,0.2,VALID,100,VALID,-0.0509425,VALID,19.3642,VALID,27,VALID,0,
2008-03-18, 00:14:00,VALID,915.897,VALID,0,VALID,100,VALID,-0.0679233,VALID,19.3774,VALID,27,VALID,0,
2008-03-18, 00:15:00,VALID,915.875,VALID,0,VALID,100,VALID,-0.0339617,VALID,19.3706,VALID,27,VALID,0,
2008-03-18, 00:16:00,VALID,915.866,VALID,0,VALID,100,VALID,-0.0509425,VALID,19.3706,VALID,27,VALID,0,
2008-03-18, 00:17:00,VALID,915.865,VALID,0,VALID,100,VALID,-0.0509425,VALID,19.3806,VALID,27,VALID,0,
2008-03-18, 00:18:00,VALID,915.858,VALID,0,VALID,100,VALID,0.0339617,VALID,19.3901,VALID,27,VALID,0,
2008-03-18, 00:19:00,VALID,915.859,VALID,0,VALID,100,VALID,0.101885,VALID,19.3984,VALID,27,VALID,0,
2008-03-18, 00:20:00,VALID,915.851,VALID,0,VALID,100,VALID,0.0849042,VALID,19.3886,VALID,27,VALID,0,
2008-03-18, 00:21:00,VALID,915.831,VALID,0,VALID,100,VALID,0.0679233,VALID,19.3921,VALID,75,VALID,0,
2008-03-18, 00:22:00,VALID,915.819,VALID,0,VALID,100,VALID,0.0339617,VALID,19.3794,VALID,179,VALID,0,
2008-03-18, 00:23:00,VALID,915.788,VALID,0,VALID,100,VALID,0.0849042,VALID,19.3759,VALID,180,VALID,0,
2008-03-18, 00:24:00,VALID,915.788,VALID,0,VALID,100,VALID,0.0679233,VALID,19.3761,VALID,180,VALID,0,
2008-03-18, 00:25:00,VALID,915.775,VALID,0,VALID,100,VALID,0.0679233,VALID,19.3694,VALID,187,VALID,0,
2008-03-18, 00:26:00,VALID,915.758,VALID,0,VALID,100,VALID,0.0849042,VALID,19.3662,VALID,194,VALID,0,
2008-03-18, 00:27:00,VALID,915.74,VALID,0,VALID,100,VALID,0.0509425,VALID,19.3667,VALID,194,VALID,0,
2008-03-18, 00:28:00,VALID,915.728,VALID,0,VALID,100,VALID,0.0849042,VALID,19.3624,VALID,194,VALID,0,
2008-03-18, 00:29:00,VALID,915.718,VALID,0,VALID,100,VALID,0.0849042,VALID,19.3657,VALID,194,VALID,0,
2008-03-18, 00:30:00,VALID,915.685,VALID,0,VALID,100,VALID,0.0509425,VALID,19.3654,VALID,163,VALID,0,
2008-03-18, 00:31:00,VALID,915.677,VALID,0,VALID,100,VALID,0.0849042,VALID,19.3692,VALID,161,VALID,0,
2008-03-18, 00:32:00,VALID,915.66,VALID,0,VALID,100,VALID,0.0509425,VALID,19.3789,VALID,177,VALID,0,
2008-03-18, 00:33:00,VALID,915.634,VALID,0,VALID,100,VALID,0.0509425,VALID,19.3637,VALID,186,VALID,0,
2008-03-18, 00:34:00,VALID,915.615,VALID,0,VALID,100,VALID,-0.0339617,VALID,19.3479,VALID,186,VALID,0,
2008-03-18, 00:35:00,VALID,915.612,VALID,0,VALID,100,VALID,-0.0169808,VALID,19.3514,VALID,186,VALID,0,
2008-03-18, 00:36:00,VALID,915.572,VALID,0,VALID,100,VALID,-0.0339617,VALID,19.3679,VALID,186,VALID,0,
2008-03-18, 00:37:00,VALID,915.565,VALID,0,VALID,100,VALID,-0.0339617,VALID,19.3814,VALID,186,VALID,0,
2008-03-18, 00:38:00,VALID,915.553,VALID,0,VALID,100,VALID,-0.101885,VALID,19.3841,VALID,186,VALID,0,
2008-03-18, 00:39:00,VALID,915.535,VALID,0,VALID,100,VALID,-0.0679233,VALID,19.3771,VALID,186,VALID,0,
2008-03-18, 00:40:00,VALID,915.517,VALID,0,VALID,100,VALID,-0.0339617,VALID,19.3809,VALID,181,VALID,0,
2008-03-18, 00:41:00,VALID,915.522,VALID,0.2,VALID,100,VALID,0,VALID,19.3739,VALID,39,VALID,0,
2008-03-18, 00:42:00,VALID,915.518,VALID,0,VALID,100,VALID,-0.0679233,VALID,19.3489,VALID,50,VALID,0,
2008-03-18, 00:43:00,VALID,915.518,VALID,0,VALID,100,VALID,-0.0679233,VALID,19.3257,VALID,54,VALID,0,
2008-03-18, 00:44:00,VALID,915.518,VALID,0,VALID,100,VALID,-0.0339617,VALID,19.3255,VALID,54,VALID,0,
2008-03-18, 00:45:00,VALID,915.514,VALID,0,VALID,100,VALID,-0.0169808,VALID,19.322,VALID,54,VALID,0,
2008-03-18, 00:46:00,VALID,915.513,VALID,0,VALID,100,VALID,-0.0339617,VALID,19.3315,VALID,54,VALID,0,
2008-03-18, 00:47:00,VALID,915.497,VALID,0,VALID,100,VALID,-0.0849042,VALID,19.3322,VALID,54,VALID,0,
2008-03-18, 00:48:00,VALID,915.49,VALID,0,VALID,100,VALID,-0.0509425,VALID,19.3389,VALID,52,VALID,0,
2008-03-18, 00:49:00,VALID,915.468,VALID,0,VALID,100,VALID,0,VALID,19.335,VALID,3,VALID,0,
2008-03-18, 00:50:00,VALID,915.47,VALID,0,VALID,100,VALID,0,VALID,19.338,VALID,360,VALID,0,
2008-03-18, 00:51:00,VALID,915.468,VALID,0,VALID,100,VALID,0,VALID,19.3377,VALID,360,VALID,0,
2008-03-18, 00:52:00,VALID,915.47,VALID,0,VALID,100,VALID,0.0169808,VALID,19.338,VALID,360,VALID,0,
2008-03-18, 00:53:00,VALID,915.467,VALID,0,VALID,100,VALID,-0.0339617,VALID,19.3449,VALID,360,VALID,0,
2008-03-18, 00:54:00,VALID,915.464,VALID,0,VALID,100,VALID,0,VALID,19.3352,VALID,360,VALID,0,
2008-03-18, 00:55:00,VALID,915.452,VALID,0,VALID,100,VALID,0,VALID,19.3085,VALID,360,VALID,0,
2008-03-18, 00:56:00,VALID,915.457,VALID,0,VALID,100,VALID,-0.0169808,VALID,19.2988,VALID,360,VALID,0,
2008-03-18, 00:57:00,VALID,915.45,VALID,0,VALID,100,VALID,-0.0169808,VALID,19.2988,VALID,360,VALID,0,
2008-03-18, 00:58:00,VALID,915.44,VALID,0,VALID,100,VALID,0,VALID,19.3025,VALID,360,VALID,0,
2008-03-18, 00:59:00,VALID,915.446,VALID,0,VALID,100,VALID,-0.0339617,VALID,19.3088,VALID,360,VALID,0,
2008-03-18, 01:00:00,VALID,915.43,VALID,0,VALID,100,VALID,-0.0339617,VALID,19.3222,VALID,360,VALID,0,
2008-03-18, 01:01:00,VALID,915.429,VALID,0,VALID,100,VALID,-0.0339617,VALID,19.3287,VALID,360,VALID,0,
2008-03-18, 01:02:00,VALID,915.395,VALID,0,VALID,100,VALID,0,VALID,19.319,VALID,360,VALID,0,
2008-03-18, 01:03:00,VALID,915.389,VALID,0,VALID,100,VALID,-0.0509425,VALID,19.3294,VALID,360,VALID,0,
2008-03-18, 01:04:00,VALID,915.375,VALID,0,VALID,100,VALID,0,VALID,19.3192,VALID,360,VALID,0,
2008-03-18, 01:05:00,VALID,915.358,VALID,0,VALID,100,VALID,0,VALID,19.3025,VALID,360,VALID,0,
2008-03-18, 01:06:00,VALID,915.342,VALID,0,VALID,100,VALID,-0.0339617,VALID,19.2998,VALID,2,VALID,0,
2008-03-18, 01:07:00,VALID,915.343,VALID,0,VALID,100,VALID,-0.0169808,VALID,19.2988,VALID,6,VALID,0,
2008-03-18, 01:08:00,VALID,915.32,VALID,0,VALID,100,VALID,-0.0169808,VALID,19.2995,VALID,78,VALID,0,
2008-03-18, 01:09:00,VALID,915.308,VALID,0,VALID,100,VALID,-0.0339617,VALID,19.2766,VALID,130,VALID,0,
2008-03-18, 01:10:00,VALID,915.292,VALID,0,VALID,100,VALID,0,VALID,19.2641,VALID,178,VALID,0,
2008-03-18, 01:11:00,VALID,915.285,VALID,0,VALID,100,VALID,-0.0339617,VALID,19.2541,VALID,178,VALID,0,
2008-03-18, 01:12:00,VALID,915.266,VALID,0,VALID,100,VALID,-0.0169808,VALID,19.2476,VALID,176,VALID,0,
2008-03-18, 01:13:00,VALID,915.264,VALID,0,VALID,100,VALID,-0.0339617,VALID,19.2513,VALID,171,VALID,0,
2008-03-18, 01:14:00,VALID,915.247,VALID,0,VALID,100,VALID,-0.0169808,VALID,19.2249,VALID,170,VALID,0,
2008-03-18, 01:15:00,VALID,915.241,VALID,0,VALID,100,VALID,-0.0169808,VALID,19.2182,VALID,175,VALID,0,
2008-03-18, 01:16:00,VALID,915.235,VALID,0,VALID,100,VALID,-0.0339617,VALID,19.2017,VALID,176,VALID,0,
2008-03-18, 01:17:00,VALID,915.224,VALID,0,VALID,100,VALID,-0.0339617,VALID,19.2022,VALID,176,VALID,0,
2008-03-18, 01:18:00,VALID,915.206,VALID,0,VALID,100,VALID,0,VALID,19.2022,VALID,176,VALID,0,
2008-03-18, 01:19:00,VALID,915.186,VALID,0,VALID,100,VALID,0,VALID,19.1925,VALID,174,VALID,0,
2008-03-18, 01:20:00,VALID,915.172,VALID,0,VALID,100,VALID,-0.0169808,VALID,19.1887,VALID,162,VALID,0,
2008-03-18, 01:21:00,VALID,915.155,VALID,0,VALID,100,VALID,-0.0849042,VALID,19.1895,VALID,170,VALID,0,
2008-03-18, 01:22:00,VALID,915.144,VALID,0,VALID,100,VALID,0,VALID,19.1857,VALID,168,VALID,0,
2008-03-18, 01:23:00,VALID,915.129,VALID,0,VALID,100,VALID,-0.0169808,VALID,19.1795,VALID,165,VALID,0,
2008-03-18, 01:24:00,VALID,915.104,VALID,0,VALID,100,VALID,-0.0339617,VALID,19.1825,VALID,162,VALID,0,
2008-03-18, 01:25:00,VALID,915.081,VALID,0,VALID,100,VALID,-0.0169808,VALID,19.1797,VALID,157,VALID,0,
2008-03-18, 01:26:00,VALID,915.063,VALID,0,VALID,100,VALID,-0.0169808,VALID,19.173,VALID,157,VALID,0,
2008-03-18, 01:27:00,VALID,915.055,VALID,0,VALID,100,VALID,0,VALID,19.166,VALID,157,VALID,0,
2008-03-18, 01:28:00,VALID,915.039,VALID,0,VALID,100,VALID,-0.0169808,VALID,19.1702,VALID,157,VALID,0,
2008-03-18, 01:29:00,VALID,915.019,VALID,0,VALID,100,VALID,-0.0169808,VALID,19.1563,VALID,156,VALID,0,
2008-03-18, 01:30:00,VALID,915.001,VALID,0,VALID,100,VALID,-0.0339617,VALID,19.1505,VALID,153,VALID,0,
2008-03-18, 01:31:00,VALID,914.972,VALID,0,VALID,100,VALID,-0.0169808,VALID,19.1308,VALID,153,VALID,0,
2008-03-18, 01:32:00,VALID,914.961,VALID,0,VALID,100,VALID,0,VALID,19.1176,VALID,153,VALID,0,
2008-03-18, 01:33:00,VALID,914.934,VALID,0,VALID,100,VALID,0,VALID,19.1246,VALID,153,VALID,0,
2008-03-18, 01:34:00,VALID,914.915,VALID,0.2,VALID,100,VALID,-0.0169808,VALID,19.1042,VALID,153,VALID,0,
2008-03-18, 01:35:00,VALID,914.898,VALID,0,VALID,100,VALID,0,VALID,19.1076,VALID,153,VALID,0,
2008-03-18, 01:36:00,VALID,914.874,VALID,0,VALID,100,VALID,-0.0169808,VALID,19.0947,VALID,153,VALID,0,
2008-03-18, 01:37:00,VALID,914.846,VALID,0,VALID,100,VALID,-0.0169808,VALID,19.1014,VALID,153,VALID,0,
2008-03-18, 01:38:00,VALID,914.819,VALID,0,VALID,100,VALID,-0.0169808,VALID,19.1011,VALID,153,VALID,0,
2008-03-18, 01:39:00,VALID,914.805,VALID,0,VALID,100,VALID,-0.0339617,VALID,19.1179,VALID,153,VALID,0,
2008-03-18, 01:40:00,VALID,914.788,VALID,0,VALID,100,VALID,-0.0169808,VALID,19.1106,VALID,153,VALID,0,
2008-03-18, 01:41:00,VALID,914.771,VALID,0,VALID,100,VALID,-0.0169808,VALID,19.1336,VALID,153,VALID,0,
2008-03-18, 01:42:00,VALID,914.747,VALID,0,VALID,100,VALID,-0.0169808,VALID,19.1401,VALID,153,VALID,0,
2008-03-18, 01:43:00,VALID,914.743,VALID,0,VALID,100,VALID,-0.0339617,VALID,19.1406,VALID,153,VALID,0,
2008-03-18, 01:44:00,VALID,914.734,VALID,0,VALID,100,VALID,-0.0169808,VALID,19.147,VALID,153,VALID,0,
2008-03-18, 01:45:00,VALID,914.716,VALID,0,VALID,100,VALID,-0.0339617,VALID,19.1368,VALID,153,VALID,0,
2008-03-18, 01:46:00,VALID,914.714,VALID,0,VALID,100,VALID,0,VALID,19.1141,VALID,153,VALID,0,
2008-03-18, 01:47:00,VALID,914.7,VALID,0,VALID,100,VALID,-0.0339617,VALID,19.0849,VALID,153,VALID,0,
2008-03-18, 01:48:00,VALID,914.677,VALID,0,VALID,100,VALID,-0.0339617,VALID,19.0622,VALID,153,VALID,0,
2008-03-18, 01:49:00,VALID,914.651,VALID,0,VALID,100,VALID,0,VALID,19.046,VALID,153,VALID,0,
2008-03-18, 01:50:00,VALID,914.636,VALID,0,VALID,100,VALID,0,VALID,19.0265,VALID,153,VALID,0,
2008-03-18, 01:51:00,VALID,914.615,VALID,0,VALID,100,VALID,0,VALID,19.0305,VALID,153,VALID,0,
2008-03-18, 01:52:00,VALID,914.597,VALID,0,VALID,100,VALID,-0.0169808,VALID,19.0068,VALID,153,VALID,0,
2008-03-18, 01:53:00,VALID,914.593,VALID,0,VALID,100,VALID,0,VALID,19.0006,VALID,145,VALID,0,
2008-03-18, 01:54:00,VALID,914.59,VALID,0,VALID,100,VALID,0,VALID,18.9841,VALID,98,VALID,0,
2008-03-18, 01:55:00,VALID,914.583,VALID,0,VALID,100,VALID,0,VALID,18.9714,VALID,92,VALID,0.358467,
2008-03-18, 01:56:00,VALID,914.577,VALID,0,VALID,100,VALID,0,VALID,18.9582,VALID,92,VALID,0.507401,
2008-03-18, 01:57:00,VALID,914.553,VALID,0,VALID,100,VALID,-0.0339617,VALID,18.9584,VALID,92,VALID,0,
2008-03-18, 01:58:00,VALID,914.542,VALID,0,VALID,100,VALID,0,VALID,18.9485,VALID,92,VALID,0,
2008-03-18, 01:59:00,VALID,914.515,VALID,0,VALID,100,VALID,0,VALID,18.9584,VALID,92,VALID,0.334077,
2008-03-18, 02:00:00,VALID,914.501,VALID,0,VALID,100,VALID,0,VALID,18.9517,VALID,92,VALID,0.0403646,
2008-03-18, 02:01:00,VALID,914.484,VALID,0,VALID,100,VALID,-0.0169808,VALID,18.9552,VALID,92,VALID,0,
2008-03-18, 02:02:00,VALID,914.471,VALID,0,VALID,100,VALID,0.0339617,VALID,18.9452,VALID,110,VALID,0.198219,
2008-03-18, 02:03:00,VALID,914.471,VALID,0,VALID,100,VALID,0,VALID,18.9387,VALID,140,VALID,0.286776,
2008-03-18, 02:04:00,VALID,914.464,VALID,0,VALID,100,VALID,0,VALID,18.942,VALID,146,VALID,0.720084,
2008-03-18, 02:05:00,VALID,914.445,VALID,0,VALID,100,VALID,0.0169808,VALID,18.9385,VALID,138,VALID,0.858994,
2008-03-18, 02:06:00,VALID,914.435,VALID,0,VALID,100,VALID,-0.0169808,VALID,18.9519,VALID,136,VALID,0.728087,
2008-03-18, 02:07:00,VALID,914.42,VALID,0,VALID,100,VALID,0,VALID,18.9487,VALID,148,VALID,0.240234,
2008-03-18, 02:08:00,VALID,914.409,VALID,0,VALID,100,VALID,-0.0169808,VALID,18.9454,VALID,142,VALID,0.143229,
2008-03-18, 02:09:00,VALID,914.383,VALID,0,VALID,100,VALID,0,VALID,18.942,VALID,140,VALID,0,
2008-03-18, 02:10:00,VALID,914.365,VALID,0,VALID,100,VALID,0,VALID,18.9587,VALID,140,VALID,0,
2008-03-18, 02:11:00,VALID,914.353,VALID,0,VALID,100,VALID,0,VALID,18.9716,VALID,156,VALID,0.37691,
2008-03-18, 02:12:00,VALID,914.344,VALID,0,VALID,100,VALID,0,VALID,18.9612,VALID,164,VALID,0.511719,
2008-03-18, 02:13:00,VALID,914.324,VALID,0,VALID,100,VALID,0,VALID,18.9549,VALID,156,VALID,0.751953,
2008-03-18, 02:14:00,VALID,914.313,VALID,0,VALID,100,VALID,0,VALID,18.9619,VALID,147,VALID,0.826172,
2008-03-18, 02:15:00,VALID,914.301,VALID,0,VALID,100,VALID,0,VALID,18.9712,VALID,149,VALID,0.714753,
2008-03-18, 02:16:00,VALID,914.289,VALID,0,VALID,100,VALID,0.0169808,VALID,18.9679,VALID,150,VALID,0.621003,
2008-03-18, 02:17:00,VALID,914.275,VALID,0,VALID,100,VALID,0,VALID,18.9677,VALID,150,VALID,0.774709,
2008-03-18, 02:18:00,VALID,914.26,VALID,0,VALID,100,VALID,0,VALID,18.9744,VALID,156,VALID,0.763207,
2008-03-18, 02:19:00,VALID,914.23,VALID,0,VALID,100,VALID,0.0169808,VALID,18.9776,VALID,155,VALID,1.01395,
2008-03-18, 02:20:00,VALID,914.222,VALID,0,VALID,100,VALID,0,VALID,18.9776,VALID,151,VALID,0.629836,
2008-03-18, 02:21:00,VALID,914.194,VALID,0,VALID,100,VALID,0.0169808,VALID,18.9742,VALID,145,VALID,0.641016,
2008-03-18, 02:22:00,VALID,914.172,VALID,0,VALID,100,VALID,0,VALID,18.9647,VALID,140,VALID,0.491319,
2008-03-18, 02:23:00,VALID,914.157,VALID,0,VALID,100,VALID,0,VALID,18.9485,VALID,142,VALID,0.245908,
2008-03-18, 02:24:00,VALID,914.141,VALID,0,VALID,100,VALID,0,VALID,18.9352,VALID,143,VALID,0.792696,
2008-03-18, 02:25:00,VALID,914.123,VALID,0,VALID,100,VALID,0,VALID,18.9255,VALID,136,VALID,0.771341,
2008-03-18, 02:26:00,VALID,914.111,VALID,0,VALID,100,VALID,-0.0169808,VALID,18.913,VALID,130,VALID,0.743075,
2008-03-18, 02:27:00,VALID,914.097,VALID,0,VALID,100,VALID,-0.0169808,VALID,18.9035,VALID,136,VALID,0.633523,
2008-03-18, 02:28:00,VALID,914.096,VALID,0,VALID,100,VALID,0.0169808,VALID,18.8901,VALID,127,VALID,0.610899,
2008-03-18, 02:29:00,VALID,914.076,VALID,0,VALID,100,VALID,0,VALID,18.8706,VALID,125,VALID,0.629542,
2008-03-18, 02:30:00,VALID,914.072,VALID,0,VALID,100,VALID,0.0339617,VALID,18.8511,VALID,129,VALID,0.217262,
2008-03-18, 02:31:00,VALID,914.067,VALID,0,VALID,100,VALID,0.0169808,VALID,18.8287,VALID,129,VALID,0.223047,
2008-03-18, 02:32:00,VALID,914.065,VALID,0,VALID,100,VALID,0,VALID,18.8055,VALID,132,VALID,0.528888,
2008-03-18, 02:33:00,VALID,914.051,VALID,0,VALID,100,VALID,0.0169808,VALID,18.8027,VALID,134,VALID,0.718564,
2008-03-18, 02:34:00,VALID,914.049,VALID,0,VALID,100,VALID,0,VALID,18.7965,VALID,136,VALID,0.610899,
2008-03-18, 02:35:00,VALID,914.043,VALID,0,VALID,100,VALID,-0.0509425,VALID,18.79,VALID,146,VALID,0.557927,
2008-03-18, 02:36:00,VALID,914.022,VALID,0,VALID,100,VALID,0,VALID,18.8065,VALID,152,VALID,0.427326,
2008-03-18, 02:37:00,VALID,914.008,VALID,0,VALID,100,VALID,0,VALID,18.7895,VALID,150,VALID,0.583452,
2008-03-18, 02:38:00,VALID,913.994,VALID,0,VALID,100,VALID,-0.0339617,VALID,18.8199,VALID,156,VALID,0.663132,
2008-03-18, 02:39:00,VALID,913.982,VALID,0,VALID,100,VALID,-0.0339617,VALID,18.8057,VALID,147,VALID,0.503348,
2008-03-18, 02:40:00,VALID,913.965,VALID,0,VALID,100,VALID,-0.0169808,VALID,18.8155,VALID,146,VALID,0.444912,
2008-03-18, 02:41:00,VALID,913.961,VALID,0,VALID,100,VALID,-0.0509425,VALID,18.8157,VALID,158,VALID,0.246626,
2008-03-18, 02:42:00,VALID,913.938,VALID,0,VALID,100,VALID,-0.0169808,VALID,18.806,VALID,151,VALID,0.471608,
2008-03-18, 02:43:00,VALID,913.927,VALID,0,VALID,100,VALID,-0.0169808,VALID,18.8259,VALID,153,VALID,0.658918,
2008-03-18, 02:44:00,VALID,913.913,VALID,0,VALID,100,VALID,0,VALID,18.8222,VALID,153,VALID,0.467262,
2008-03-18, 02:45:00,VALID,913.909,VALID,0,VALID,100,VALID,-0.0169808,VALID,18.819,VALID,139,VALID,0.339236,
2008-03-18, 02:46:00,VALID,913.899,VALID,0,VALID,100,VALID,-0.0339617,VALID,18.8065,VALID,152,VALID,0.237282,
2008-03-18, 02:47:00,VALID,913.893,VALID,0,VALID,100,VALID,-0.0509425,VALID,18.8095,VALID,151,VALID,0.685547,
2008-03-18, 02:48:00,VALID,913.888,VALID,0,VALID,100,VALID,-0.0509425,VALID,18.8229,VALID,148,VALID,1.12024,
2008-03-18, 02:49:00,VALID,913.895,VALID,0,VALID,100,VALID,-0.0509425,VALID,18.8231,VALID,164,VALID,0.675037,
2008-03-18, 02:50:00,VALID,913.901,VALID,0,VALID,100,VALID,-0.101885,VALID,18.8292,VALID,156,VALID,0.426314,
2008-03-18, 02:51:00,VALID,913.893,VALID,0,VALID,100,VALID,-0.0849042,VALID,18.8359,VALID,161,VALID,0.842076,
2008-03-18, 02:52:00,VALID,913.895,VALID,0,VALID,100,VALID,0,VALID,18.8359,VALID,159,VALID,0.818714,
2008-03-18, 02:53:00,VALID,913.896,VALID,0,VALID,100,VALID,-0.0679233,VALID,18.8259,VALID,154,VALID,1.07048,
2008-03-18, 02:54:00,VALID,913.892,VALID,0,VALID,100,VALID,-0.0339617,VALID,18.8294,VALID,139,VALID,0.484375,
2008-03-18, 02:55:00,VALID,913.895,VALID,0,VALID,100,VALID,-0.0339617,VALID,18.8097,VALID,137,VALID,0.700284,
2008-03-18, 02:56:00,VALID,913.898,VALID,0,VALID,100,VALID,-0.0169808,VALID,18.8034,VALID,134,VALID,0.132102,
2008-03-18, 02:57:00,VALID,913.894,VALID,0,VALID,100,VALID,-0.0679233,VALID,18.8067,VALID,135,VALID,0.174237,
2008-03-18, 02:58:00,VALID,913.902,VALID,0,VALID,100,VALID,-0.0169808,VALID,18.793,VALID,139,VALID,0.93378,
2008-03-18, 02:59:00,VALID,913.903,VALID,0,VALID,100,VALID,-0.0509425,VALID,18.8004,VALID,132,VALID,0.839236,
2008-03-18, 03:00:00,VALID,913.899,VALID,0,VALID,100,VALID,0,VALID,18.7837,VALID,120,VALID,0.47526,
2008-03-18, 03:01:00,VALID,913.896,VALID,0,VALID,100,VALID,-0.0339617,VALID,18.761,VALID,134,VALID,0.501776,
2008-03-18, 03:02:00,VALID,913.891,VALID,0,VALID,100,VALID,-0.0169808,VALID,18.7643,VALID,134,VALID,0.206659,
2008-03-18, 03:03:00,VALID,913.893,VALID,0,VALID,100,VALID,0,VALID,18.7673,VALID,140,VALID,0.495094,
2008-03-18, 03:04:00,VALID,913.895,VALID,0,VALID,100,VALID,0,VALID,18.761,VALID,148,VALID,0.486861,
2008-03-18, 03:05:00,VALID,913.891,VALID,0,VALID,100,VALID,-0.0339617,VALID,18.7675,VALID,134,VALID,0.656064,
2008-03-18, 03:06:00,VALID,913.893,VALID,0,VALID,100,VALID,-0.0169808,VALID,18.7441,VALID,132,VALID,0,
2008-03-18, 03:07:00,VALID,913.895,VALID,0,VALID,100,VALID,-0.0339617,VALID,18.7546,VALID,132,VALID,0,
2008-03-18, 03:08:00,VALID,913.881,VALID,0,VALID,100,VALID,-0.0169808,VALID,18.7451,VALID,126,VALID,0,
2008-03-18, 03:09:00,VALID,913.879,VALID,0,VALID,100,VALID,0,VALID,18.7279,VALID,122,VALID,0,
2008-03-18, 03:10:00,VALID,913.876,VALID,0,VALID,100,VALID,-0.0339617,VALID,18.7416,VALID,122,VALID,0,
2008-03-18, 03:11:00,VALID,913.856,VALID,0,VALID,100,VALID,-0.0339617,VALID,18.7216,VALID,122,VALID,0,
2008-03-18, 03:12:00,VALID,913.853,VALID,0,VALID,100,VALID,-0.0339617,VALID,18.7149,VALID,122,VALID,0,
2008-03-18, 03:13:00,VALID,913.849,VALID,0,VALID,100,VALID,0,VALID,18.7091,VALID,122,VALID,0,
2008-03-18, 03:14:00,VALID,913.836,VALID,0,VALID,100,VALID,-0.0169808,VALID,18.6635,VALID,122,VALID,0,
2008-03-18, 03:15:00,VALID,913.843,VALID,0,VALID,100,VALID,-0.0169808,VALID,18.6603,VALID,122,VALID,0,
2008-03-18, 03:16:00,VALID,913.844,VALID,0,VALID,100,VALID,-0.0339617,VALID,18.6438,VALID,122,VALID,0,
2008-03-18, 03:17:00,VALID,913.842,VALID,0,VALID,100,VALID,-0.0169808,VALID,18.6241,VALID,122,VALID,0,
2008-03-18, 03:18:00,VALID,913.823,VALID,0,VALID,100,VALID,-0.0509425,VALID,18.6181,VALID,122,VALID,0,
2008-03-18, 03:19:00,VALID,913.826,VALID,0,VALID,100,VALID,0,VALID,18.6274,VALID,122,VALID,0,
2008-03-18, 03:20:00,VALID,913.834,VALID,0,VALID,100,VALID,-0.0339617,VALID,18.5887,VALID,122,VALID,0,
2008-03-18, 03:21:00,VALID,913.837,VALID,0,VALID,100,VALID,-0.0339617,VALID,18.5562,VALID,122,VALID,0,
2008-03-18, 03:22:00,VALID,913.836,VALID,0,VALID,100,VALID,-0.0339617,VALID,18.5562,VALID,122,VALID,0,
2008-03-18, 03:23:00,VALID,913.84,VALID,0,VALID,100,VALID,-0.0339617,VALID,18.546,VALID,122,VALID,0,
2008-03-18, 03:24:00,VALID,913.849,VALID,0,VALID,100,VALID,0,VALID,18.5303,VALID,122,VALID,0,
2008-03-18, 03:25:00,VALID,913.84,VALID,0,VALID,100,VALID,-0.0339617,VALID,18.5405,VALID,122,VALID,0,
2008-03-18, 03:26:00,VALID,913.836,VALID,0,VALID,100,VALID,-0.0169808,VALID,18.5368,VALID,122,VALID,0,
2008-03-18, 03:27:00,VALID,913.838,VALID,0,VALID,100,VALID,-0.0169808,VALID,18.5335,VALID,122,VALID,0,
2008-03-18, 03:28:00,VALID,913.841,VALID,0,VALID,100,VALID,-0.0679233,VALID,18.547,VALID,122,VALID,0,
2008-03-18, 03:29:00,VALID,913.836,VALID,0,VALID,100,VALID,-0.0509425,VALID,18.569,VALID,122,VALID,0,
2008-03-18, 03:30:00,VALID,913.84,VALID,0,VALID,100,VALID,-0.0339617,VALID,18.5857,VALID,122,VALID,0,
2008-03-18, 03:31:00,VALID,913.836,VALID,0,VALID,100,VALID,-0.0509425,VALID,18.563,VALID,121,VALID,0,
2008-03-18, 03:32:00,VALID,913.853,VALID,0,VALID,100,VALID,0,VALID,18.5595,VALID,102,VALID,0,
2008-03-18, 03:33:01,VALID,913.854,VALID,0,VALID,100,VALID,-0.0169808,VALID,18.5597,VALID,98,VALID,0,
2008-03-18, 03:34:00,VALID,913.858,VALID,0,VALID,100,VALID,0,VALID,18.5759,VALID,98,VALID,0,
2008-03-18, 03:35:00,VALID,913.865,VALID,0,VALID,100,VALID,0,VALID,18.5919,VALID,98,VALID,0,
2008-03-18, 03:36:00,VALID,913.857,VALID,0,VALID,100,VALID,-0.0169808,VALID,18.5657,VALID,98,VALID,0,
2008-03-18, 03:37:00,VALID,913.863,VALID,0,VALID,100,VALID,-0.0169808,VALID,18.5917,VALID,99,VALID,0.218568,
2008-03-18, 03:38:00,VALID,913.859,VALID,0,VALID,100,VALID,-0.0339617,VALID,18.6278,VALID,106,VALID,0.818924,
2008-03-18, 03:39:00,VALID,913.854,VALID,0,VALID,100,VALID,-0.0169808,VALID,18.6535,VALID,109,VALID,0.695676,
2008-03-18, 03:40:00,VALID,913.854,VALID,0,VALID,100,VALID,0,VALID,18.6371,VALID,115,VALID,0.463141,
2008-03-18, 03:41:00,VALID,913.844,VALID,0,VALID,100,VALID,0,VALID,18.6406,VALID,116,VALID,0.650981,
2008-03-18, 03:42:00,VALID,913.837,VALID,0,VALID,100,VALID,-0.0339617,VALID,18.6378,VALID,117,VALID,0.670313,
2008-03-18, 03:43:01,VALID,913.834,VALID,0,VALID,100,VALID,-0.0169808,VALID,18.6016,VALID,117,VALID,0.734375,
2008-03-18, 03:44:01,VALID,913.822,VALID,0,VALID,100,VALID,0,VALID,18.6021,VALID,117,VALID,0.751367,
2008-03-18, 03:45:00,VALID,913.819,VALID,0,VALID,100,VALID,-0.0169808,VALID,18.5919,VALID,120,VALID,0.950893,
2008-03-18, 03:46:00,VALID,913.814,VALID,0,VALID,100,VALID,0.0169808,VALID,18.5919,VALID,122,VALID,1.02876,
2008-03-18, 03:47:01,VALID,913.81,VALID,0,VALID,100,VALID,-0.0169808,VALID,18.5894,VALID,120,VALID,1.09375,
2008-03-18, 03:48:00,VALID,913.804,VALID,0,VALID,100,VALID,-0.0169808,VALID,18.566,VALID,114,VALID,1.19798,
2008-03-18, 03:49:00,VALID,913.794,VALID,0,VALID,100,VALID,0.0169808,VALID,18.5725,VALID,108,VALID,1.19085,